[[{"header":{"parameterUnit":"m.s-1","parameterCategory":1,"la1":30.2991,"la2":30.254,"lo1":-89.0895,"lo2":-89.0444,"dx":0.0017,"dy":0.0017,"nx":28,"ny":28,"refTime":"2022-12-03T09:00:00:Z","depth":0,"parameterNumber":2,"parameterNumberName":"U-component_of_WINDS"},"data":[0,0,0,0,0,0,0,0,0,0,0,0,0,0,0,0,0,0,0,0,0,0,0,0,0,0,0,0,0,0,0,0,0,0,0,0,0,0,0,0,0,0,0,0,0,0,0,0,0,0,0,0,0,0,0,0,0,0,0.2539,0.2538,0,0.2519,0.2519,0.2518,0.2504,0.2504,0.2504,0.2504,0.2484,0.2484,0.2484,0,0,0,0,0,0,0,0,0,0,0,0,0,0.2564,0.2564,0.2539,0.2538,0.2538,0.2519,0.2519,0.2518,0.2504,0.2504,0.2504,0.2504,0.2485,0.2484,0.2484,0,0,0,0,0,0,0,0,0,0,0,0,0,0.255,0.2564,0.2539,0.2529,0.2528,0.2519,0.2518,0.2518,0.2504,0.2504,0.2504,0.2504,0.2485,0.2484,0.2483,0.2483,0,0,0.2482,0.2481,0,0,0,0,0,0,0,0,0.255,0.2549,0.2531,0.253,0.2528,0.2514,0.252,0.2506,0.2504,0.2513,0.2504,0.2504,0.2494,0.2493,0.249,0.2482,0.2481,0.2481,0.2481,0.2481,0.2481,0,0,0,0,0,0,0,0.2551,0.2549,0.2531,0.253,0.2529,0.2525,0.2523,0.2518,0.2505,0.2513,0.2512,0.2509,0.2494,0.249,0.2489,0.2481,0.2481,0.2481,0.2481,0.248,0.247,0.247,0,0,0,0,0,0,0.2554,0.255,0.2531,0.253,0.2539,0.2525,0.2522,0.2519,0.2505,0.2503,0.2509,0.2509,0.2491,0.249,0.2488,0.2486,0.2481,0.248,0.248,0.247,0.247,0.2471,0,0,0,0,0,0,0.2555,0.2552,0.2532,0.254,0.2537,0.2525,0.2521,0.2518,0.2515,0.2503,0.25,0.2508,0.2491,0.2489,0.2484,0.2485,0.248,0.2479,0.247,0.247,0.247,0.2482,0,0,0,0,0,0,0.2555,0.2553,0.2553,0.254,0.2537,0.2528,0.2521,0.2518,0.2514,0.2513,0.2501,0.2499,0.2491,0.2485,0.2483,0.2484,0.2479,0.247,0.247,0.247,0.2481,0.2482,0.2483,0,0,0,0,0,0.2556,0.2557,0.2553,0.255,0.2536,0.2529,0.2527,0.2517,0.2514,0.2513,0.2505,0.2499,0.2485,0.2485,0.2483,0.2483,0.247,0.247,0.247,0.2481,0.2482,0.2483,0,0,0,0,0,0,0.257,0.2555,0.255,0.2547,0.2539,0.2526,0.2525,0.2519,0.2512,0.2512,0.25,0.2498,0.2494,0.2488,0.2488,0.2481,0.2477,0.2477,0.2485,0.2487,0.2488,0.2489,0.2478,0,0,0,0,0,0.2573,0.2568,0.2555,0.2553,0.2549,0.2538,0.2534,0.2528,0.2519,0.2516,0.2508,0.25,0.2493,0.249,0.2483,0.248,0.2477,0.248,0.2481,0.2482,0.2482,0.2479,0.248,0.2471,0.2471,0.2471,0,0,0.2579,0.257,0.2567,0.2556,0.2549,0.2544,0.2535,0.2531,0.2527,0.2515,0.251,0.2503,0.2494,0.2489,0.2487,0.2484,0.2483,0.2482,0.2483,0.2482,0.2479,0.248,0.2481,0.2472,0.2472,0.2472,0,0,0.2586,0.2579,0.2576,0.2569,0.2559,0.2551,0.255,0.2538,0.2533,0.2527,0.2518,0.2513,0.2503,0.2496,0.2492,0.2495,0.2489,0.2493,0.2498,0.2496,0.2496,0.2497,0.2498,0.2498,0.2493,0.2493,0.2493,0,0.2594,0.2586,0.2576,0.2571,0.2566,0.2555,0.2552,0.2546,0.2534,0.253,0.2527,0.2513,0.2506,0.25,0.25,0.2497,0.2496,0.2495,0.2497,0.2498,0.2498,0.2499,0.2499,0.2494,0.2494,0.2494,0.2494,0,0.2597,0.2591,0.259,0.2578,0.2573,0.2569,0.2558,0.2554,0.2547,0.254,0.2533,0.2524,0.2515,0.2513,0.2507,0.2505,0.2504,0.2499,0.2494,0.2499,0.25,0.25,0.2495,0.2494,0.2494,0.2494,0,0,0.2613,0.2595,0.2595,0.2589,0.2576,0.2571,0.2566,0.2557,0.2554,0.2546,0.2541,0.2532,0.2527,0.2522,0.2514,0.2512,0.2515,0.2508,0.2507,0.2509,0.2512,0.2515,0.2516,0.251,0.251,0.251,0.2512,0,0.2619,0.2609,0.2599,0.2594,0.2588,0.2577,0.2573,0.2564,0.2557,0.255,0.2542,0.2536,0.253,0.2526,0.2524,0.2515,0.2515,0.2515,0.2506,0.2506,0.2509,0.2516,0.252,0.2523,0.2513,0.2513,0.2513,0,0.2624,0.2615,0.2609,0.2596,0.2593,0.2589,0.258,0.2574,0.2564,0.2558,0.2552,0.2544,0.2538,0.2533,0.2525,0.2525,0.252,0.2515,0.2515,0.2514,0.251,0.2515,0.2523,0.2523,0.2513,0.2513,0.2513,0,0.2636,0.2623,0.2618,0.2613,0.2597,0.2595,0.2588,0.2578,0.2573,0.2564,0.256,0.2551,0.2547,0.254,0.2529,0.2527,0.2522,0.2516,0.2517,0.2517,0.2516,0.2517,0.2524,0.2514,0.2514,0.2514,0.2514,0,0.2643,0.264,0.2623,0.262,0.2615,0.2603,0.2599,0.2591,0.2582,0.2576,0.2566,0.2561,0.2548,0.2541,0.2533,0.2527,0.2525,0.252,0.2518,0.2521,0.2522,0.2518,0.2518,0.2514,0.2514,0.2514,0.2514,0,0.2656,0.2645,0.2638,0.2623,0.2619,0.2617,0.2604,0.26,0.2592,0.2585,0.2582,0.2569,0.2561,0.255,0.2538,0.2532,0.2527,0.2524,0.2531,0.2529,0.253,0.253,0.2535,0.2535,0.2526,0.2526,0.2526,0,0.2662,0.2659,0.2643,0.2639,0.2632,0.2625,0.2619,0.2607,0.2602,0.2589,0.2586,0.2577,0.2569,0.2556,0.2545,0.2536,0.2533,0.2535,0.2531,0.2534,0.2532,0.2532,0.2532,0.2536,0.2536,0.2536,0.2536,0,0.2672,0.2666,0.2659,0.2648,0.2642,0.2633,0.2625,0.2621,0.2607,0.2601,0.2592,0.2586,0.2574,0.2564,0.2553,0.2546,0.2539,0.2538,0.2537,0.254,0.2544,0.2542,0.2533,0.2538,0.2538,0.2537,0.2537,0.2537,0.2681,0.2678,0.2666,0.2657,0.2649,0.2641,0.2636,0.2626,0.2619,0.2607,0.26,0.2592,0.258,0.2565,0.2558,0.2551,0.2548,0.2547,0.2547,0.2547,0.2548,0.2545,0.2549,0.2549,0.2549,0.2549,0.2549,0,0.2691,0.2682,0.2675,0.2662,0.2655,0.2648,0.2638,0.2632,0.2624,0.2614,0.2606,0.2596,0.2586,0.2574,0.2564,0.256,0.2557,0.2558,0.2558,0.2557,0.2551,0.2553,0.2561,0.2561,0.2561,0.2561,0.2561,0.2561,0.2695,0.2688,0.2681,0.267,0.2661,0.2652,0.2647,0.2639,0.2631,0.2619,0.2611,0.2603,0.2592,0.2581,0.2572,0.2568,0.2565,0.2567,0.2563,0.2558,0.2557,0.2556,0.2557,0.2567,0.2567,0.2569,0.2569,0.2569]},{"header":{"parameterUnit":"m.s-1","parameterCategory":1,"la1":30.2991,"la2":30.254,"lo1":-89.0895,"lo2":-89.0444,"dx":0.0017,"dy":0.0017,"nx":28,"ny":28,"refTime":"2022-12-03T09:00:00:Z","depth":0,"parameterNumber":3,"parameterNumberName":"V-component_of_WINDS"},"data":[0,0,0,0,0,0,0,0,0,0,0,0,0,0,0,0,0,0,0,0,0,0,0,0,0,0,0,0,0,0,0,0,0,0,0,0,0,0,0,0,0,0,0,0,0,0,0,0,0,0,0,0,0,0,0,0,0,0,1.4976,1.4976,0,1.5018,1.5019,1.5019,1.5026,1.5026,1.5026,1.5025,1.5066,1.5067,1.5069,0,0,0,0,0,0,0,0,0,0,0,0,0,1.4898,1.4899,1.4976,1.4977,1.4977,1.5018,1.5019,1.5019,1.5026,1.5026,1.5026,1.5025,1.5066,1.5067,1.5069,0,0,0,0,0,0,0,0,0,0,0,0,0,1.4935,1.4899,1.4976,1.4986,1.4987,1.5018,1.5019,1.502,1.5027,1.5026,1.5025,1.5025,1.5065,1.5067,1.5069,1.5093,0,0,1.5076,1.5077,0,0,0,0,0,0,0,0,1.4933,1.4938,1.4984,1.4985,1.4986,1.5017,1.5006,1.5044,1.5027,1.5011,1.5025,1.5025,1.505,1.5053,1.5062,1.5095,1.5097,1.5076,1.5077,1.5078,1.5079,0,0,0,0,0,0,0,1.493,1.4936,1.4993,1.4984,1.4986,1.4987,1.4991,1.5013,1.5033,1.5013,1.5013,1.5018,1.505,1.506,1.5063,1.5097,1.5076,1.5078,1.5079,1.508,1.515,1.5151,0,0,0,0,0,0,1.4926,1.4934,1.4991,1.4994,1.4958,1.4988,1.4994,1.5007,1.5033,1.5036,1.5019,1.5019,1.5057,1.5061,1.5065,1.5094,1.5078,1.508,1.5081,1.515,1.5151,1.5151,0,0,0,0,0,0,1.4925,1.4931,1.499,1.4964,1.4972,1.499,1.5006,1.5009,1.5018,1.5037,1.5041,1.5025,1.5057,1.5062,1.5086,1.5095,1.5081,1.5083,1.5149,1.515,1.5151,1.5153,0,0,0,0,0,0,1.4922,1.4931,1.4941,1.4964,1.4973,1.5011,1.5006,1.501,1.5022,1.5022,1.5044,1.5048,1.5056,1.5083,1.5088,1.5098,1.5085,1.5148,1.515,1.5151,1.5152,1.5154,1.5155,0,0,0,0,0,1.492,1.4939,1.4941,1.4948,1.4986,1.5012,1.5017,1.5027,1.5023,1.5033,1.5045,1.5047,1.5093,1.5085,1.5091,1.5102,1.5148,1.5149,1.5151,1.5151,1.5153,1.5155,0,0,0,0,0,0,1.4916,1.4943,1.4945,1.4974,1.499,1.5013,1.5026,1.5029,1.5047,1.5046,1.5058,1.5063,1.5086,1.5096,1.5087,1.5126,1.512,1.5123,1.5119,1.5121,1.5122,1.512,1.5086,0,0,0,0,0,1.4919,1.4938,1.496,1.4983,1.4991,1.5007,1.5019,1.5025,1.5043,1.505,1.5064,1.508,1.5098,1.511,1.5128,1.5153,1.5158,1.5163,1.5165,1.5166,1.5168,1.5182,1.5185,1.5156,1.5156,1.5156,0,0,1.4924,1.4941,1.4953,1.4983,1.4997,1.5015,1.5013,1.5033,1.5047,1.5053,1.5077,1.5087,1.5106,1.5131,1.5142,1.514,1.5177,1.5168,1.5169,1.517,1.5184,1.5186,1.5189,1.5157,1.5156,1.5156,0,0,1.4944,1.4959,1.498,1.4994,1.5015,1.5025,1.503,1.5052,1.5059,1.5083,1.5087,1.5103,1.5135,1.5148,1.5158,1.5182,1.5184,1.5187,1.5195,1.5208,1.521,1.5213,1.5221,1.5223,1.5189,1.5189,1.5189,0,1.4949,1.4979,1.499,1.501,1.5022,1.5028,1.5048,1.5061,1.5086,1.5094,1.5091,1.513,1.5143,1.5171,1.5176,1.5185,1.519,1.5185,1.5209,1.5212,1.5214,1.5221,1.5224,1.5189,1.5189,1.5189,1.5189,0,1.4982,1.5003,1.5016,1.5042,1.5055,1.5075,1.5088,1.5101,1.5106,1.5116,1.514,1.5155,1.5176,1.5183,1.5188,1.5211,1.5209,1.5207,1.5202,1.5217,1.5224,1.5227,1.5189,1.5189,1.5189,1.5189,0,0,1.5003,1.5033,1.5038,1.5049,1.5072,1.5088,1.5107,1.5128,1.5138,1.5155,1.5171,1.5197,1.5195,1.5207,1.5214,1.5225,1.5242,1.5222,1.5223,1.5225,1.5267,1.5269,1.5272,1.5243,1.5244,1.5244,1.5266,0,1.5026,1.5062,1.5072,1.5102,1.5121,1.5126,1.5142,1.5158,1.5167,1.5183,1.5193,1.5211,1.5208,1.5215,1.5227,1.5237,1.525,1.5236,1.5257,1.5258,1.5253,1.5276,1.5278,1.5298,1.5269,1.5269,1.527,0,1.5058,1.5076,1.5108,1.5128,1.5136,1.5151,1.5171,1.5186,1.5203,1.5209,1.5221,1.5226,1.5245,1.5238,1.5264,1.5254,1.5263,1.5269,1.527,1.5273,1.5265,1.5279,1.5304,1.5307,1.5275,1.5274,1.5274,0,1.5069,1.5101,1.5125,1.5134,1.5158,1.5168,1.5178,1.5195,1.5206,1.5223,1.523,1.5248,1.5258,1.5271,1.528,1.5274,1.5305,1.5299,1.531,1.531,1.5317,1.5317,1.5344,1.5322,1.5322,1.5322,1.5322,0,1.5094,1.5114,1.513,1.5145,1.5166,1.5177,1.5197,1.5207,1.5221,1.5237,1.5242,1.5256,1.5267,1.5282,1.5289,1.5309,1.5313,1.5318,1.532,1.5318,1.5317,1.5324,1.5323,1.5323,1.5323,1.5323,1.5322,0,1.5112,1.5124,1.5149,1.5169,1.5175,1.519,1.5206,1.522,1.5229,1.5248,1.5253,1.5267,1.5285,1.5295,1.5318,1.5322,1.5345,1.5346,1.534,1.534,1.5351,1.535,1.5384,1.5389,1.5364,1.5364,1.5364,0,1.5127,1.5142,1.5164,1.5175,1.5186,1.5203,1.5215,1.5225,1.5237,1.5256,1.5267,1.5286,1.5301,1.533,1.5341,1.5358,1.5359,1.537,1.5362,1.5359,1.5359,1.5359,1.536,1.5371,1.5372,1.5372,1.5372,0,1.5153,1.5158,1.5176,1.5195,1.5209,1.5224,1.5239,1.5248,1.526,1.5273,1.5292,1.5304,1.5327,1.5345,1.5362,1.5371,1.5373,1.5374,1.5378,1.5376,1.5372,1.5375,1.5344,1.5374,1.5374,1.5373,1.5373,1.5373,1.517,1.5184,1.5201,1.522,1.5232,1.5246,1.5259,1.527,1.5286,1.5306,1.531,1.533,1.5345,1.5369,1.5378,1.5393,1.5391,1.5396,1.5397,1.5399,1.5399,1.537,1.5396,1.5396,1.5396,1.5396,1.5396,0,1.5197,1.5208,1.5225,1.5246,1.5261,1.5262,1.5278,1.529,1.5307,1.5321,1.5336,1.5357,1.5374,1.5387,1.5404,1.5413,1.5414,1.5417,1.5417,1.5419,1.54,1.5395,1.5416,1.5416,1.5416,1.5416,1.5416,1.5416,1.5212,1.5235,1.5242,1.527,1.528,1.53,1.531,1.5322,1.5333,1.5356,1.5371,1.5379,1.5392,1.541,1.5425,1.5428,1.5434,1.5437,1.544,1.5422,1.542,1.5418,1.5414,1.5438,1.5438,1.5457,1.5458,1.5458]}]]